{"data":{"norad_id":69539,"intl_designator":"2026-134B","name":"2026-134B","alt_names":[],"object_type":"PAYLOAD","status":"ACTIVE","operator":null,"country":"PRC","launch_date":"2026-06-15","launch_site_code":"JSC","launch_vehicle":null,"mission":null,"orbit_class":"UNKNOWN","rcs_meters":null,"size_class":null,"mass_kg":null,"dimensions":null,"purposes":[],"wikipedia_slug":null,"has_3d_model":false,"image_url":null,"decayed_at":null,"tle_current":{"epoch":"2026-09-19T22:35:15.943200Z","epoch_age_seconds":81695,"freshness":"FRESH","line1":"1 69539U 26134B   26262.94115675  .00003297  00000+0  21397-3 0  9999","line2":"2 69539  97.6902 333.3160 0015063 311.0073  48.9852 15.08697574 14593","mean_motion":15.08697574,"eccentricity":0.0015063,"inclination_deg":97.6902,"raan_deg":333.316,"arg_perigee_deg":311.0073,"mean_anomaly_deg":48.9852,"bstar":0.00021397,"rev_number":1459,"period_min":95.446564295993,"perigee_km":529.75770348216,"apogee_km":550.59982154831,"semimajor_km":6918.3157625152,"source":"CELESTRAK","updated_at":"2026-09-20T09:00:24.948079Z"}}}